| time (UTC) | temp F | wind direction | speed knots | gust knots | rain 1hr in | rain 24hr in | rain mn in | humidity % | barometer mb |
| 20260504081530 | 48 | 29 | 12.2 | 20.0 | 0.00 | 0.00 | 0.00 | 58 | 1014.8 |
| 20260504044535 | 57 | 42 | 15.6 | 21.7 | 0.00 | 0.00 | 0.00 | 41 | 1009.9 |
| 20260504043035 | 57 | 49 | 8.7 | 13.0 | 0.00 | 0.00 | 0.00 | 41 | 1009.4 |
| 20260504041534 | 57 | 42 | 8.7 | 11.3 | 0.00 | 0.00 | 0.00 | 41 | 1009.0 |
| 20260504040037 | 57 | 44 | 7.8 | 13.0 | 0.00 | 0.00 | 0.00 | 39 | 1008.6 |
| 20260504034541 | 58 | 38 | 9.6 | 13.0 | 0.00 | 0.00 | 0.00 | 38 | 1008.1 |
| 20260504033038 | 59 | 38 | 10.4 | 16.5 | 0.00 | 0.00 | 0.00 | 38 | 1007.9 |
| 20260504031538 | 60 | 42 | 12.2 | 18.2 | 0.00 | 0.00 | 0.00 | 37 | 1007.7 |
| 20260504030036 | 61 | 53 | 13.0 | 18.2 | 0.00 | 0.00 | 0.00 | 36 | 1007.4 |
| 20260504024531 | 62 | 54 | 12.2 | 16.5 | 0.00 | 0.00 | 0.00 | 33 | 1007.1 |
| 20260504023033 | 64 | 48 | 9.6 | 14.8 | 0.00 | 0.00 | 0.00 | 30 | 1007.0 |
| 20260504021532 | 65 | 39 | 0.9 | 4.3 | 0.00 | 0.00 | 0.00 | 25 | 1006.9 |
| 20260504020032 | 68 | 345 | 1.7 | 8.7 | 0.00 | 0.00 | 0.00 | 23 | 1007.0 |
| 20260504014530 | 69 | 342 | 3.5 | 13.0 | 0.00 | 0.00 | 0.00 | 23 | 1007.1 |
| 20260504013035 | 71 | 325 | 7.0 | 12.2 | 0.00 | 0.00 | 0.00 | 22 | 1007.0 |
| 20260504011534 | 72 | 348 | 7.8 | 13.0 | 0.00 | 0.00 | 0.00 | 21 | 1007.0 |
| 20260504010030 | 73 | 329 | 8.7 | 13.0 | 0.00 | 0.00 | 0.00 | 21 | 1007.0 |
| 20260504004534 | 73 | 333 | 9.6 | 15.6 | 0.00 | 0.00 | 0.00 | 21 | 1007.2 |
| 20260504003039 | 74 | 324 | 7.8 | 17.4 | 0.00 | 0.00 | 0.00 | 21 | 1007.3 |
| 20260504001533 | 74 | 324 | 7.8 | 17.4 | 0.00 | 0.00 | 0.00 | 20 | 1007.5 |
| 20260504000053 | 75 | 334 | 7.8 | 14.8 | 0.00 | 0.00 | 0.00 | 20 | 1007.6 |
| 20260503234533 | 75 | 328 | 8.7 | 13.0 | 0.00 | 0.00 | 0.00 | 21 | 1007.6 |
| 20260503233033 | 74 | 301 | 5.2 | 16.5 | 0.00 | 0.00 | 0.00 | 20 | 1007.7 |
| 20260503231536 | 75 | 338 | 7.8 | 15.6 | 0.00 | 0.00 | 0.00 | 19 | 1007.9 |
| 20260503230032 | 75 | 310 | 8.7 | 15.6 | 0.00 | 0.00 | 0.00 | 20 | 1007.9 |
| 20260503224533 | 75 | 329 | 7.0 | 13.0 | 0.00 | 0.00 | 0.00 | 20 | 1007.9 |
| 20260503223037 | 75 | 289 | 9.6 | 16.5 | 0.00 | 0.00 | 0.00 | 20 | 1008.2 |
| 20260503221547 | 74 | 333 | 7.8 | 16.5 | 0.00 | 0.00 | 0.00 | 20 | 1008.3 |
| 20260503220037 | 74 | 323 | 10.4 | 17.4 | 0.00 | 0.00 | 0.00 | 20 | 1008.4 |
| 20260503214539 | 75 | 314 | 7.8 | 15.6 | 0.00 | 0.00 | 0.00 | 20 | 1008.7 |
| 20260503213035 | 74 | 298 | 9.6 | 14.8 | 0.00 | 0.00 | 0.00 | 21 | 1008.9 |
| 20260503211536 | 74 | 315 | 9.6 | 19.1 | 0.00 | 0.00 | 0.00 | 21 | 1009.3 |
| 20260503210033 | 74 | 322 | 7.0 | 13.9 | 0.00 | 0.00 | 0.00 | 20 | 1009.5 |
| 20260503204535 | 73 | 281 | 8.7 | 15.6 | 0.00 | 0.00 | 0.00 | 21 | 1009.6 |
| 20260503203049 | 73 | 284 | 9.6 | 15.6 | 0.00 | 0.00 | 0.00 | 21 | 1009.8 |
| 20260503201535 | 73 | 304 | 9.6 | 17.4 | 0.00 | 0.00 | 0.00 | 22 | 1010.0 |
| 20260503200033 | 72 | 311 | 6.1 | 15.6 | 0.00 | 0.00 | 0.00 | 20 | 1010.1 |
| 20260503194538 | 72 | 309 | 5.2 | 15.6 | 0.00 | 0.00 | 0.00 | 22 | 1010.3 |
| 20260503193036 | 71 | 297 | 6.1 | 14.8 | 0.00 | 0.00 | 0.00 | 21 | 1010.7 |
| 20260503191535 | 71 | 291 | 7.0 | 12.2 | 0.00 | 0.00 | 0.00 | 21 | 1010.9 |
| 20260503190039 | 71 | 288 | 3.5 | 17.4 | 0.00 | 0.00 | 0.00 | 21 | 1011.0 |
| 20260503184534 | 71 | 288 | 5.2 | 13.9 | 0.00 | 0.00 | 0.00 | 22 | 1011.0 |
| 20260503183037 | 71 | 313 | 5.2 | 12.2 | 0.00 | 0.00 | 0.00 | 23 | 1011.2 |
| 20260503181536 | 71 | 278 | 7.8 | 12.2 | 0.00 | 0.00 | 0.00 | 23 | 1011.5 |
| 20260503180035 | 70 | 304 | 3.5 | 13.9 | 0.00 | 0.00 | 0.00 | 25 | 1011.8 |
| 20260503174535 | 70 | 331 | 7.0 | 13.0 | 0.00 | 0.00 | 0.00 | 26 | 1011.8 |
| 20260503173050 | 69 | 225 | 2.6 | 9.6 | 0.00 | 0.00 | 0.00 | 29 | 1011.9 |
| 20260503171539 | 69 | 296 | 3.5 | 13.0 | 0.00 | 0.00 | 0.00 | 29 | 1012.0 |